CW4226 Weather Reports


Display with metric or nautical units.
time (UTC)temp
F
wind
direction
speed
MPH
gust
MPH
rain 1hr
in
rain 24hr
in
rain mn
in
humidity
%
barometer
mb
20200806071519 53 5 0.0 0.0 0.00 0.00 0.00 100 1016.1
20200806071021 53 5 0.0 0.0 0.00 0.00 0.00 100 1016.1
20200806070522 53 5 0.0 0.0 0.00 0.00 0.00 100 1016.1
20200806070019 53 5 0.0 0.0 0.00 0.00 0.00 100 1015.9
20200806064519 53 5 0.0 0.0 0.00 0.00 0.00 100 1015.9
20200806064018 53 5 0.0 0.0 0.00 0.00 0.00 100 1015.9
20200806063518 54 5 0.0 0.0 0.00 0.00 0.00 100 1015.9
20200806063020 54 5 0.0 0.0 0.00 0.00 0.00 100 1015.9
20200806061518 54 5 0.0 0.0 0.00 0.00 0.00 100 1015.7
20200806061018 54 5 0.0 0.0 0.00 0.00 0.00 100 1015.7
20200806060525 54 5 0.0 0.0 0.00 0.00 0.00 100 1015.7
20200806060021 53 5 0.0 0.0 0.00 0.00 0.00 100 1015.7
20200806054520 53 5 0.0 0.0 0.00 0.00 0.00 100 1015.5
20200806054019 53 5 0.0 0.0 0.00 0.00 0.00 100 1015.6
20200806053518 53 5 0.0 0.0 0.00 0.00 0.00 100 1015.5
20200806053019 53 5 0.0 0.0 0.00 0.00 0.00 100 1015.5
20200806051523 54 5 0.0 0.0 0.00 0.00 0.00 100 1015.4
20200806051019 54 5 0.0 0.0 0.00 0.00 0.00 100 1015.6
20200806050519 54 5 0.0 0.0 0.00 0.00 0.00 100 1015.6
20200806050020 54 5 0.0 0.0 0.00 0.00 0.00 100 1015.6
20200806044518 54 5 0.0 0.0 0.00 0.00 0.00 100 1015.6
20200806044018 54 5 0.0 0.0 0.00 0.00 0.00 100 1015.6
20200806043520 54 5 0.0 0.0 0.00 0.00 0.00 100 1015.5
20200806043019 54 5 0.0 0.0 0.00 0.00 0.00 100 1015.5
20200806041518 54 5 0.0 0.0 0.00 0.00 0.00 100 1015.4
20200806041018 54 5 0.0 0.0 0.00 0.00 0.00 100 1015.4
20200806040519 55 5 0.0 0.0 0.00 0.00 0.00 100 1015.4
20200806040019 55 5 0.0 0.0 0.00 0.00 0.00 100 1015.3
20200806034519 55 5 0.0 0.0 0.00 0.00 0.00 100 1015.3
20200806034020 55 5 0.0 0.0 0.00 0.00 0.00 100 1015.3
20200806033520 55 5 0.0 0.0 0.00 0.00 0.00 100 1015.4
20200806033020 55 5 0.0 0.0 0.00 0.00 0.00 100 1015.3
20200806031519 56 5 0.0 0.0 0.00 0.00 0.00 100 1015.2
20200806031018 56 5 0.0 0.0 0.00 0.00 0.00 100 1015.2
20200806030519 56 5 0.0 0.0 0.00 0.00 0.00 100 1015.1
20200806030022 56 5 0.0 0.0 0.00 0.00 0.00 100 1015.1
20200806024523 56 5 0.0 0.0 0.00 0.00 0.00 99 1015.1
20200806024019 56 5 0.0 0.0 0.00 0.00 0.00 99 1015.0
20200806023521 57 5 0.0 0.0 0.00 0.00 0.00 99 1015.0
20200806023019 57 5 0.0 0.0 0.00 0.00 0.00 98 1014.9
20200806021520 57 5 0.0 0.0 0.00 0.00 0.00 98 1015.1
20200806021019 57 5 0.0 0.0 0.00 0.00 0.00 98 1015.1
20200806020519 58 5 0.0 0.0 0.00 0.00 0.00 98 1015.1
20200806020019 58 5 0.0 0.0 0.00 0.00 0.00 98 1015.1
20200806014535 58 5 0.0 0.0 0.00 0.00 0.00 96 1015.0
20200806014019 58 5 0.0 0.0 0.00 0.00 0.00 96 1015.0
20200806013518 59 5 0.0 0.0 0.00 0.00 0.00 94 1014.9
20200806013025 59 5 0.0 0.0 0.00 0.00 0.00 94 1014.9
20200806011519 60 5 0.0 0.0 0.00 0.00 0.00 92 1014.8
20200806011018 60 5 0.0 0.0 0.00 0.00 0.00 92 1014.7
20200806010518 60 5 0.0 0.0 0.00 0.00 0.00 91 1014.9
20200806010020 61 5 0.0 0.0 0.00 0.00 0.00 89 1014.9
20200806004521 62 9 0.0 0.0 0.00 0.00 0.00 87 1014.5
20200806004020 62 8 0.0 0.0 0.00 0.00 0.00 84 1014.6
20200806003523 62 0 0.0 0.0 0.00 0.00 0.00 84 1014.5
20200806003021 63 0 0.0 0.0 0.00 0.00 0.00 83 1014.5
20200806001520 64 0 0.0 0.0 0.00 0.00 0.00 78 1014.5
20200806001021 64 0 0.0 0.0 0.00 0.00 0.00 76 1014.3
20200806000519 65 5 0.0 0.0 0.00 0.00 0.00 76 1014.3
20200806000018 65 5 0.0 0.0 0.00 0.00 0.00 75 1014.3
20200805234518 66 5 0.0 0.0 0.00 0.00 0.00 74 1014.0
20200805234019 66 5 0.0 0.0 0.00 0.00 0.00 72 1014.0
20200805233519 67 5 0.0 0.0 0.00 0.00 0.00 70 1014.0
20200805233021 67 5 0.0 0.0 0.00 0.00 0.00 69 1014.0
20200805231519 68 5 0.0 0.0 0.00 0.00 0.00 68 1013.9
20200805231019 68 5 0.0 0.0 0.00 0.00 0.00 67 1013.9
20200805230521 68 1 0.0 0.0 0.00 0.00 0.00 67 1014.0
20200805230018 68 1 0.0 0.0 0.00 0.00 0.00 66 1014.0
20200805224524 70 0 0.0 0.0 0.00 0.00 0.00 64 1013.9
20200805224025 70 0 0.0 0.0 0.00 0.00 0.00 63 1014.0
20200805223518 70 0 0.0 3.0 0.00 0.00 0.00 59 1014.0
20200805223022 70 0 0.0 3.0 0.00 0.00 0.00 62 1014.0
20200805221521 71 0 0.0 2.0 0.00 0.00 0.00 58 1014.0
20200805221018 71 0 0.0 6.0 0.00 0.00 0.00 58 1014.1
20200805220522 71 0 0.0 3.0 0.00 0.00 0.00 60 1014.1
20200805220026 71 0 0.0 12.0 0.00 0.00 0.00 59 1014.1
20200805214521 72 0 1.0 7.0 0.00 0.00 0.00 57 1014.0
20200805214018 72 0 2.0 9.0 0.00 0.00 0.00 53 1014.1
20200805213521 72 0 0.0 0.0 0.00 0.00 0.00 58 1014.1
20200805213020 73 0 0.0 6.0 0.00 0.00 0.00 59 1014.1
20200805211518 73 0 0.0 2.0 0.00 0.00 0.00 53 1014.0
20200805211018 73 5 1.0 3.0 0.00 0.00 0.00 51 1014.1
20200805210519 73 0 0.0 3.0 0.00 0.00 0.00 56 1014.1
20200805210023 74 0 0.0 5.0 0.00 0.00 0.00 52 1014.1
20200805204520 75 0 1.0 10.0 0.00 0.00 0.00 48 1014.1
20200805204018 75 0 1.0 7.0 0.00 0.00 0.00 50 1014.1
20200805203519 75 0 0.0 6.0 0.00 0.06 0.00 53 1014.2
20200805203019 76 0 1.0 5.0 0.00 0.07 0.00 53 1014.1
20200805201519 76 0 2.0 7.0 0.00 0.07 0.00 53 1014.0
20200805201018 76 0 1.0 6.0 0.00 0.07 0.00 51 1014.0
20200805200529 75 0 0.0 2.0 0.00 0.07 0.00 59 1014.2
20200805200018 75 0 2.0 7.0 0.00 0.07 0.00 57 1014.2
20200805194522 73 0 0.0 3.0 0.00 0.07 0.00 56 1014.0
20200805194019 73 0 0.0 2.0 0.00 0.07 0.00 61 1013.9
20200805193518 75 0 1.0 5.0 0.00 0.07 0.00 58 1013.9
20200805193019 76 0 1.0 7.0 0.00 0.07 0.00 57 1013.9
20200805191518 76 0 1.0 3.0 0.00 0.08 0.00 57 1014.0
20200805191019 76 0 2.0 6.0 0.00 0.08 0.00 54 1014.1
20200805190519 76 0 0.0 5.0 0.00 0.09 0.00 53 1014.1
20200805190018 76 0 0.0 5.0 0.00 0.10 0.00 56 1014.1
20200805184518 75 0 1.0 7.0 0.00 0.16 0.00 57 1014.1
20200805184018 74 1 0.0 2.0 0.00 0.22 0.00 61 1014.1
20200805183519 74 0 1.0 5.0 0.00 0.31 0.00 55 1014.1
20200805183018 76 0 1.0 3.0 0.00 0.39 0.00 57 1014.2
20200805181519 76 0 0.0 2.0 0.00 0.66 0.00 56 1014.2
20200805181018 75 0 1.0 5.0 0.00 0.75 0.00 60 1014.2
20200805180519 75 0 0.0 3.0 0.00 0.83 0.00 59 1014.2
20200805180018 75 0 0.0 7.0 0.00 0.92 0.00 56 1014.1
20200805174518 73 0 1.0 3.0 0.00 1.15 0.00 62 1014.1
20200805174019 72 0 0.0 3.0 0.00 1.25 0.00 65 1014.3
20200805173524 72 0 0.0 0.0 0.00 1.35 0.00 64 1014.2
20200805173022 72 0 0.0 1.0 0.00 1.45 0.00 65 1014.3
20200805171518 73 0 0.0 0.0 0.00 1.77 0.00 63 1014.1
20200805171019 73 0 0.0 1.0 0.00 1.86 0.00 65 1014.1
20200805170518 73 0 0.0 2.0 0.00 1.93 0.00 66 1014.1
20200805170020 73 0 0.0 3.0 0.00 2.02 0.00 60 1014.1
20200805164521 75 0 0.0 1.0 0.00 2.19 0.00 63 1014.1
20200805164020 76 0 0.0 1.0 0.00 2.22 0.00 61 1014.0
20200805163518 76 0 0.0 6.0 0.00 2.26 0.00 58 1014.0
20200805163021 75 0 0.0 7.0 0.00 2.30 0.00 62 1014.0
20200805161520 74 0 0.0 3.0 0.00 2.41 0.00 68 1014.0
20200805161024 74 0 0.0 7.0 0.00 2.43 0.00 64 1014.0
20200805160518 74 0 0.0 3.0 0.00 2.45 0.00 66 1014.0
20200805160019 73 0 1.0 7.0 0.00 2.48 0.00 66 1014.1
20200805154519 73 0 0.0 5.0 0.00 2.53 0.00 65 1013.8
20200805154018 74 0 1.0 3.0 0.00 2.54 0.00 64 1014.0
20200805153522 74 0 2.0 7.0 0.00 2.57 0.00 65 1014.0
20200805153021 74 0 1.0 7.0 0.00 2.60 0.00 76 1014.0
20200805151518 72 0 1.0 5.0 0.00 2.66 0.00 70 1013.9
20200805151019 72 0 2.0 12.0 0.00 2.69 0.00 72 1014.0
20200805150519 72 0 1.0 5.0 0.00 2.81 0.00 70 1014.0
20200805150020 72 0 1.0 7.0 0.00 2.88 0.00 72 1014.0
20200805144519 72 0 0.0 3.0 0.00 3.08 0.00 70 1014.0
20200805144019 72 0 1.0 5.0 0.00 3.11 0.00 73 1013.9
20200805143520 72 0 0.0 0.0 0.00 3.16 0.00 73 1013.9
20200805143019 72 0 0.0 0.0 0.00 3.26 0.00 72 1013.9
20200805141519 71 0 0.0 3.0 0.00 3.36 0.00 71 1013.7
20200805141019 71 0 1.0 10.0 0.00 3.38 0.00 75 1013.7
20200805140518 71 0 0.0 9.0 0.00 3.40 0.00 71 1013.6
20200805140020 72 0 2.0 3.0 0.00 3.42 0.00 72 1013.4
20200805134518 71 0 0.0 3.0 0.00 3.49 0.00 81 1013.5
20200805134018 70 0 1.0 6.0 0.00 3.50 0.00 77 1013.5
20200805133518 70 0 0.0 1.0 0.00 3.52 0.00 80 1013.5
20200805133018 70 0 0.0 5.0 0.00 3.53 0.00 85 1013.5
20200805131518 69 0 0.0 1.0 0.00 3.57 0.00 86 1013.5
20200805131020 68 0 0.0 9.0 0.00 3.59 0.00 87 1013.5
20200805130518 68 0 2.0 7.0 0.00 3.61 0.00 87 1013.3
20200805130018 67 0 0.0 3.0 0.00 3.62 0.00 92 1013.3
20200805124518 65 0 0.0 3.0 0.00 3.64 0.00 99 1013.4
20200805124018 64 0 1.0 5.0 0.00 3.64 0.00 100 1013.4
20200805123523 64 0 0.0 3.0 0.00 3.65 0.00 100 1013.4
20200805123018 64 0 0.0 2.0 0.00 3.65 0.00 100 1013.2
20200805121522 63 0 0.0 2.0 0.00 3.69 0.00 100 1013.2
20200805121018 63 0 0.0 0.0 0.00 3.70 0.00 100 1013.0
20200805120519 63 0 0.0 1.0 0.00 3.70 0.00 100 1013.0
20200805120021 63 0 0.0 3.0 0.00 3.70 0.00 100 1013.1
20200805114519 62 0 0.0 0.0 0.00 3.71 0.00 100 1012.9
20200805114018 62 0 0.0 2.0 0.00 3.72 0.00 100 1012.8
20200805113518 62 0 0.0 2.0 0.00 3.72 0.00 100 1012.8
20200805113018 62 0 1.0 3.0 0.00 3.72 0.00 100 1012.8
20200805111521 62 0 1.0 3.0 0.00 3.72 0.00 100 1012.5
20200805111019 62 0 0.0 1.0 0.00 3.73 0.00 100 1012.4
20200805110519 62 0 0.0 2.0 0.00 3.73 0.00 100 1012.4
20200805110021 62 0 0.0 2.0 0.00 3.73 0.00 100 1012.2
20200805104519 62 0 0.0 0.0 0.00 3.74 0.00 100 1012.3
20200805104018 62 0 0.0 0.0 0.00 3.74 0.00 100 1012.1
20200805103525 62 0 0.0 0.0 0.00 3.75 0.00 100 1011.9
20200805103019 62 0 0.0 3.0 0.00 3.75 0.00 100 1011.9
20200805101518 62 0 0.0 1.0 0.00 3.76 0.00 100 1011.9
20200805101018 62 0 0.0 3.0 0.00 3.76 0.00 100 1011.8
20200805100521 62 0 0.0 0.0 0.00 3.77 0.00 100 1011.8
20200805100019 62 0 0.0 3.0 0.00 3.78 0.00 100 1011.8
20200805094518 63 0 0.0 3.0 0.00 3.80 0.00 100 1011.5
20200805094018 63 0 0.0 1.0 0.00 3.80 0.00 100 1011.4
20200805093520 63 0 0.0 5.0 0.00 3.80 0.00 100 1011.4
20200805093018 63 0 0.0 3.0 0.00 3.80 0.00 100 1011.3
20200805091518 63 0 1.0 9.0 0.00 3.81 0.00 100 1011.2
20200805091018 63 0 0.0 2.0 0.00 3.81 0.00 100 1011.2
20200805090519 63 0 1.0 3.0 0.00 3.82 0.00 100 1011.0
20200805090018 63 0 0.0 1.0 0.00 3.82 0.00 100 1011.0
20200805084518 62 0 0.0 0.0 0.00 3.82 0.00 100 1010.8
20200805084018 62 0 0.0 0.0 0.00 3.83 0.00 100 1010.8
20200805083519 62 0 0.0 0.0 0.00 3.84 0.00 100 1010.8
20200805083018 62 0 0.0 0.0 0.00 3.84 0.00 100 1010.8
20200805081518 62 0 0.0 0.0 0.00 3.84 0.00 100 1010.7
20200805081021 62 0 0.0 0.0 0.00 3.85 0.00 100 1010.7
20200805080520 62 0 0.0 0.0 0.00 3.85 0.00 100 1010.6
20200805080020 62 0 0.0 0.0 0.00 3.85 0.00 100 1010.6
20200805074518 61 0 0.0 0.0 0.00 3.85 0.00 100 1010.5
20200805074019 61 0 0.0 0.0 0.00 3.86 0.00 100 1010.4
20200805073519 61 0 0.0 0.0 0.00 3.86 0.00 100 1010.4
20200805073018 61 0 0.0 0.0 0.00 3.86 0.00 100 1010.3